Cloud_Cover
0 0 0 0 0 0 0 0 0 0 0 0 0 0 0 0 0 0 0 0 0 0 0 0 0 0 0 0 0 0 0 0 0 0 0 0 0 8 32 24 12 8 8 8 24 44 32 8 0 0 0 0 0 0 0 0 0 0 0 0 0 0 0 0 0 0 0 0 0 0 0 0 0 0 8 12 24 32 24 8 8 12 12 12 20 20 20 20 12 12 8 0 0 0 0 0 0 0 0 0 0 0 0
24 8 0 0 0 0 0 0 0 0 0 0 0 0 0 0 0 0 0 0 0 0 0 0 0 0 0 0 0 0 0 0 0 0 0 0 0 0 12 32 24 8 12 44 68 88 80 32 8 0 0 0 0 0 0 0 0 0 0 0 0 0 0 0 0 0 0 0 0 0 0 0 0 0 20 32 24 24 24 8 8 12 8 12 12 20 20 20 20 20 12 8 0 0 0 0 0 0 0 0 0 0 0
24 0 0 0 0 0 0 0 0 0 0 0 0 0 0 0 0 0 0 0 0 0 0 0 0 0 0 0 0 0 0 0 0 0 0 0 0 0 0 20 20 8 8 68 92 92 92 88 56 36 44 8 0 0 0 0 0 0 0 0 0 0 0 0 0 0 0 0 0 0 0 0 0 0 0 12 20 24 20 24 24 20 12 12 12 12 20 20 24 20 20 12 8 8 0 0 0 0 0 0 0 0 0
8 0 8 0 0 0 0 0 0 0 0 0 0 0 0 0 0 0 0 0 0 0 0 0 0 0 0 0 0 0 0 0 0 0 0 0 0 0 0 8 12 20 20 48 48 36 64 88 92 88 88 24 0 0 0 0 0 0 0 0 0 0 0 0 0 0 0 0 0 0 8 8 0 0 0 8 32 48 36 36 36 36 24 24 20 12 12 12 12 20 20 12 12 12 8 0 0 0 0 0 0 0 0
8 0 0 0 0 8 8 8 8 8 0 0 0 0 0 0 0 0 0 0 0 0 0 0 0 0 0 0 0 0 0 0 0 0 0 0 0 0 0 8 12 12 12 12 8 24 92 92 92 76 12 0 0 0 0 0 8 8 0 0 0 8 8 8 8 0 0 0 0 8 12 8 8 0 0 0 12 36 48 48 48 48 48 48 44 24 20 20 12 12 20 12 12 12 12 8 0 0 0 0 0 0 0
0 0 0 0 0 0 0 0 0 0 0 0 0 0 0 0 0 0 0 0 0 0 0 0 0 0 0 0 0 0 0 0 0 0 0 0 0 0 0 8 12 12 12 8 8 8 0 24 32 24 0 0 0 0 0 8 8 8 8 0 8 20 20 12 8 8 8 0 8 12 12 12 8 0 0 0 0 12 44 44 48 64 56 56 44 32 32 24 20 12 12 8 8 12 12 12 8 8 0 0 0 0 0
0 0 0 0 0 0 0 0 0 0 0 0 0 0 0 0 0 0 0 0 0 0 0 0 0 0 0 0 0 0 0 0 0 0 0 0 0 0 0 8 8 0 8 0 0 0 0 0 0 0 0 0 0 0 0 0 8 8 8 12 24 32 24 20 12 8 8 8 24 36 20 24 12 0 0 0 0 0 0 24 44 56 64 56 48 44 44 36 32 20 20 12 8 8 12 12 12 12 12 0 0 0 0
0 0 0 0 0 0 0 0 0 0 0 0 0 0 0 0 0 0 0 0 0 0 0 0 0 0 0 0 0 8 0 0 0 0 0 0 0 0 0 8 12 12 0 0 0 0 0 0 0 0 0 0 0 0 0 0 8 8 8 8 20 32 32 20 12 12 12 32 36 36 20 8 12 12 0 0 0 0 0 36 48 56 56 56 48 44 36 36 36 36 32 36 24 12 12 12 12 8 8 0 0 0 0
0 0 0 0 0 0 0 0 0 0 0 0 0 0 0 0 0 0 0 0 0 0 0 0 0 0 0 12 8 8 24 8 0 0 0 0 0 0 0 0 0 0 0 0 0 0 0 0 0 0 0 0 0 0 8 8 8 8 0 8 20 32 32 24 20 12 20 20 20 12 12 8 8 0 0 0 0 0 20 36 48 56 56 56 48 44 44 44 36 36 32 36 44 36 20 24 20 8 8 8 8 0 0
0 0 0 0 0 0 0 0 0 0 0 0 0 0 0 0 0 0 0 0 0 8 0 0 0 0 0 8 8 0 8 0 0 0 0 0 0 0 0 0 0 0 0 0 0 0 0 0 0 0 0 0 0 0 0 0 0 0 0 0 8 20 24 24 20 12 12 12 12 8 12 8 8 12 12 8 0 8 24 32 36 48 56 64 56 44 44 44 44 44 44 32 32 32 36 24 20 12 8 8 8 8 0
0 0 0 0 0 0 0 0 0 0 0 0 0 0 0 0 0 0 0 8 12 12 8 8 0 0 8 8 0 0 8 8 0 0 0 0 0 0 0 0 0 0 8 0 0 0 0 0 8 20 20 8 0 0 0 0 0 0 0 0 0 8 12 20 20 12 8 8 8 8 8 8 20 36 56 24 8 8 8 20 36 48 68 68 68 64 56 56 56 48 36 36 32 24 32 32 32 24 20 24 20 12 0
0 0 0 0 0 0 0 0 0 0 0 0 0 0 0 0 0 8 12 8 8 8 8 8 8 8 8 8 8 8 12 8 8 8 8 8 0 0 0 0 0 8 24 20 12 0 0 8 24 36 20 8 0 8 12 8 0 0 0 0 0 0 0 8 8 8 8 8 8 8 20 12 8 0 8 8 8 8 8 20 36 48 64 64 64 64 64 56 48 48 44 44 44 36 32 32 32 32 32 36 32 20 12
0 0 0 0 0 0 0 0 0 0 0 0 0 0 0 8 20 24 36 24 24 20 12 20 20 20 20 20 24 24 24 20 24 24 32 20 20 12 12 12 20 24 36 32 24 20 20 32 32 24 20 12 12 20 12 8 0 0 0 0 0 0 0 0 0 0 8 8 12 24 20 8 0 0 8 12 12 12 12 20 36 56 64 64 68 68 64 56 48 44 44 44 44 44 36 24 20 24 32 32 36 32 20
0 0 0 0 0 0 0 0 0 0 0 0 0 0 0 36 56 48 24 20 12 20 24 20 24 44 44 56 64 68 68 64 48 44 48 36 32 32 32 32 36 44 36 32 24 24 32 44 44 24 0 8 20 20 12 0 0 0 0 0 0 0 0 0 0 12 24 12 20 32 24 12 8 8 8 24 20 12 12 32 44 56 56 56 56 64 56 44 36 32 36 24 24 32 24 20 20 24 12 20 24 32 20
0 0 0 0 0 0 0 0 0 0 0 0 0 0 8 44 64 56 36 24 20 24 36 36 64 76 76 76 76 76 76 76 68 56 36 32 36 44 48 48 48 44 24 44 48 48 56 76 68 44 0 0 0 0 0 0 0 0 0 0 8 12 12 0 0 20 56 20 12 12 24 24 24 20 24 24 24 24 20 48 56 48 48 48 48 44 44 36 36 36 44 32 20 12 20 20 20 20 24 20 20 12 20
0 0 0 0 0 0 0 0 0 0 0 0 8 20 36 64 76 68 64 56 48 56 68 64 76 80 80 76 76 76 80 80 56 20 8 8 24 48 68 68 64 36 12 48 80 92 92 76 48 24 8 0 0 0 0 0 0 0 0 20 36 48 32 12 8 8 24 12 8 8 20 32 32 36 48 44 44 44 44 68 76 68 68 76 68 56 44 56 64 56 48 56 48 44 44 36 32 24 32 20 20 12 12
0 0 0 0 0 0 0 0 0 0 0 0 24 56 76 80 80 76 76 80 80 80 88 68 56 48 48 64 68 68 64 64 32 0 0 32 56 76 92 92 68 32 8 24 48 76 76 48 36 32 24 20 8 0 0 0 0 0 8 24 64 68 8 8 8 8 20 20 12 12 20 36 44 48 48 68 64 56 64 64 68 80 92 80 80 80 68 64 64 76 92 64 48 56 88 56 48 48 32 44 32 12 12
0 0 0 0 0 0 0 0 0 0 12 24 48 76 80 80 80 80 80 76 76 68 56 36 24 20 12 24 32 24 12 8 24 44 44 80 92 92 92 88 56 20 0 0 12 24 24 8 0 12 12 24 24 12 0 0 0 0 8 20 44 44 0 0 8 12 20 20 20 20 24 36 44 48 48 68 80 80 68 76 76 76 76 68 56 56 64 24 12 24 48 36 24 24 48 32 44 56 64 64 48 32 32
0 0 0 0 0 0 0 0 0 12 56 68 68 76 76 76 80 88 76 68 48 32 20 12 20 12 0 0 8 20 32 32 64 92 92 92 80 64 48 44 24 8 0 0 0 0 0 0 0 0 0 12 12 8 0 0 0 0 0 0 8 0 0 0 8 12 20 20 20 20 24 24 32 36 44 48 68 88 92 68 76 88 76 80 76 56 44 56 56 48 44 36 36 36 36 32 32 36 44 24 20 24 32
0 0 0 0 0 0 0 20 36 56 88 92 80 68 68 64 76 88 68 76 36 12 36 56 64 56 56 48 56 68 76 76 88 92 92 68 36 12 8 8 12 12 12 8 0 0 0 0 0 0 0 0 0 0 0 0 0 0 0 0 0 0 0 0 8 12 12 20 12 12 20 24 32 36 20 24 32 44 76 56 64 80 80 92 88 80 80 88 80 68 48 36 32 36 36 32 32 24 20 8 8 12 12
0 0 0 0 0 8 12 64 88 92 92 88 80 76 80 48 48 68 76 68 36 24 80 64 44 32 36 68 88 92 92 92 92 80 44 20 8 0 8 8 12 20 12 8 8 0 0 0 0 0 0 0 0 0 0 0 0 0 0 0 0 0 0 0 0 8 0 8 12 24 32 32 36 36 36 12 0 8 24 44 64 76 80 80 76 76 76 68 56 44 24 24 24 24 20 24 20 20 8 8 8 8 8
0 0 0 0 12 36 68 88 88 80 80 80 80 76 44 36 56 80 88 88 76 56 36 12 0 0 0 20 32 44 68 44 32 24 0 0 0 0 8 8 12 12 12 8 8 8 8 8 0 0 0 0 0 0 0 0 0 0 0 0 0 0 0 0 0 0 0 8 20 24 20 32 32 32 48 36 20 8 8 44 64 68 68 64 56 48 48 36 32 24 24 36 36 32 24 24 24 20 12 12 12 8 8
0 0 12 32 56 80 88 88 76 64 88 68 48 32 8 64 88 92 92 92 64 20 0 0 0 0 0 0 0 0 12 0 0 0 0 0 0 0 0 0 12 20 12 8 8 12 20 12 12 8 8 0 0 0 0 0 0 0 0 0 0 0 0 0 0 0 0 8 8 8 8 12 12 12 20 32 36 36 48 64 64 64 64 56 48 44 36 24 20 20 24 44 36 32 24 32 24 24 24 20 20 12 12
8 32 76 80 88 88 76 76 68 68 92 68 56 48 20 76 92 88 68 44 12 0 0 0 0 0 0 0 0 0 0 0 0 0 0 0 0 0 0 0 0 8 20 20 20 20 24 24 20 20 12 12 8 8 0 0 0 0 0 0 0 0 0 0 0 0 0 0 0 0 8 0 0 8 12 32 48 64 68 68 68 64 64 68 64 48 32 24 20 24 44 32 32 24 24 32 32 24 24 24 24 24 20
68 76 92 92 88 64 24 48 76 80 48 80 88 88 80 80 64 36 12 0 0 0 0 0 0 0 0 0 0 0 0 0 0 0 0 0 0 0 0 0 0 0 0 12 20 24 32 32 32 32 24 20 20 20 12 8 0 0 0 0 0 0 0 0 0 0 0 0 0 0 0 0 0 12 32 48 64 68 68 68 68 68 68 76 76 68 56 44 44 36 24 20 24 32 32 32 32 32 24 24 24 32 24
92 92 92 88 48 12 0 20 64 92 80 92 92 92 80 56 36 12 0 0 0 0 0 0 0 0 0 0 0 0 0 0 0 0 0 0 0 0 0 0 0 0 0 0 8 20 24 36 36 36 36 36 36 36 24 20 20 12 12 8 8 0 0 0 0 0 0 0 0 0 0 0 12 24 32 44 56 64 64 68 68 76 76 76 68 68 68 68 64 48 20 36 32 24 24 32 32 24 24 24 24 24 24
80 76 92 36 8 0 0 64 88 92 92 88 80 76 56 20 0 0 0 0 0 0 0 0 0 0 0 0 0 0 0 0 0 0 0 0 0 0 0 0 0 0 0 0 0 0 0 32 44 44 36 36 36 36 36 32 32 32 32 24 20 12 0 8 8 0 0 0 0 0 0 8 12 20 20 24 36 44 44 56 64 68 76 76 76 76 68 68 64 48 44 56 48 36 24 36 36 32 24 32 32 32 36
92 92 92 24 24 56 80 92 92 92 92 92 48 8 8 0 0 0 0 0 0 0 0 0 0 0 0 0 0 0 0 0 0 0 0 0 0 0 0 0 0 0 0 0 0 0 0 8 32 48 48 48 48 44 36 32 32 32 36 36 32 24 20 20 20 12 12 8 8 8 0 0 8 8 8 12 20 24 24 24 32 44 48 68 88 92 80 68 56 56 64 76 68 64 48 64 64 68 76 48 36 36 44
92 80 44 48 76 92 92 92 92 92 92 92 56 20 0 8 0 0 0 0 0 0 0 0 0 0 0 0 0 0 0 0 0 0 0 0 0 0 0 0 0 0 0 0 0 0 0 0 24 48 56 56 56 56 48 44 36 36 36 36 36 36 32 36 32 24 20 20 12 12 12 8 8 8 12 12 20 20 12 12 12 12 20 48 68 68 68 56 76 88 80 88 92 92 80 80 80 80 76 56 48 44 44
80 76 92 76 80 92 92 92 88 80 92 80 48 20 20 12 0 0 0 0 0 0 0 0 0 0 0 0 0 0 0 0 0 0 0 0 0 0 0 0 0 0 0 0 0 0 0 0 0 12 48 44 44 48 56 48 44 36 32 36 36 44 44 44 36 32 32 24 24 20 20 12 12 12 8 8 12 12 12 8 8 8 8 44 64 68 56 44 44 64 92 92 88 76 68 76 80 80 64 44 36 36 44
76 64 92 92 88 80 92 92 92 76 24 12 12 20 24 8 0 0 0 0 0 0 0 0 0 0 0 0 0 0 0 0 0 0 0 0 0 0 0 0 0 0 0 0 0 0 0 0 0 0 12 0 0 12 32 32 24 12 20 20 24 32 44 44 44 44 36 32 32 32 20 12 12 12 8 8 12 12 12 12 12 12 12 36 48 56 36 68 88 92 92 80 76 76 76 88 92 88 76 48 36 36 36
64 76 92 92 92 92 92 56 36 20 8 0 12 12 0 0 0 0 0 0 0 0 0 0 0 0 0 0 0 0 0 0 0 0 0 0 0 0 0 0 0 0 0 0 0 0 0 0 0 0 0 0 0 0 0 0 0 0 0 8 12 12 12 20 32 36 44 36 36 32 32 24 24 24 20 12 12 12 12 12 12 12 8 12 20 32 32 44 76 92 92 88 76 64 68 68 68 68 64 56 48 44 36
68 48 44 76 88 80 48 24 8 8 8 20 12 8 0 0 0 0 0 0 0 0 0 0 0 0 0 0 0 0 0 0 0 0 0 0 0 0 0 0 0 0 0 0 0 0 0 0 0 0 0 0 0 0 0 0 0 0 0 0 8 8 8 8 12 24 32 32 32 32 32 32 24 24 20 20 12 12 8 8 8 8 0 0 8 8 8 32 68 92 92 92 88 68 56 48 48 56 64 48 44 44 44
76 48 48 24 12 24 48 44 36 32 8 0 0 0 0 0 0 0 0 0 0 0 0 0 0 0 0 0 0 0 0 0 0 0 0 0 0 0 0 0 0 0 0 0 0 0 0 0 0 0 0 0 0 0 0 0 0 0 0 0 0 0 0 0 0 8 20 12 20 24 24 24 24 20 20 20 12 8 8 0 0 0 0 0 0 0 0 32 68 92 88 80 76 76 64 56 48 44 44 32 32 36 44
64 64 76 56 48 48 44 8 0 0 0 0 0 0 0 0 0 0 0 0 0 0 0 0 0 0 0 0 0 0 0 0 0 0 0 0 0 0 0 0 0 0 0 0 0 0 0 0 0 0 0 0 0 0 0 0 0 0 0 0 0 0 0 0 0 0 0 0 0 0 20 20 20 12 20 20 20 12 8 8 0 0 0 0 0 0 0 20 44 64 64 80 88 88 76 64 48 36 32 24 24 24 32
56 64 56 48 24 0 0 0 0 0 0 0 0 0 0 0 0 0 0 0 0 0 0 0 0 0 0 0 0 0 0 0 0 0 0 0 0 0 0 0 0 0 0 0 0 0 0 0 0 0 0 0 0 0 0 0 0 0 0 0 0 0 0 0 0 0 0 0 0 0 0 0 0 0 0 8 8 8 0 0 0 0 0 0 0 0 0 0 20 44 56 56 68 80 80 64 48 44 32 20 8 8 24
56 44 32 32 12 0 0 0 0 0 0 0 0 0 0 0 0 0 0 0 0 0 0 0 0 0 0 0 0 0 0 0 0 0 0 0 0 0 0 0 0 0 0 0 0 0 0 0 0 0 0 0 0 0 0 0 0 0 0 0 0 0 0 0 0 0 0 0 0 0 0 0 0 0 0 0 0 0 0 0 0 0 0 0 0 0 0 0 0 8 32 20 32 56 76 48 36 36 36 8 0 0 0
32 20 12 12 0 0 0 0 0 0 0 0 0 0 0 0 0 0 0 0 0 0 0 0 0 0 0 0 0 0 0 0 0 0 0 0 0 0 0 0 0 0 0 0 0 0 0 0 0 0 0 0 0 0 0 0 0 0 0 0 0 0 0 0 0 0 0 0 0 0 0 0 0 0 0 0 0 0 0 0 0 0 0 0 0 0 0 0 0 0 0 0 8 24 48 32 24 24 24 8 0 0 0
12 8 0 0 0 0 0 0 0 0 0 0 0 0 0 0 0 0 0 0 0 0 0 0 0 0 0 0 0 0 0 0 0 0 0 0 0 0 0 0 0 0 0 0 0 0 0 0 0 0 0 0 0 0 0 0 0 0 0 0 0 0 0 0 0 0 0 0 0 0 0 0 0 0 0 0 0 0 0 0 0 0 0 0 0 0 0 0 0 0 0 0 0 8 24 8 0 0 0 0 0 0 0
8 0 0 0 8 8 0 0 0 0 0 0 0 0 0 0 0 0 0 0 0 0 0 0 0 0 0 0 0 0 0 0 0 0 0 0 0 0 0 0 0 0 0 0 0 0 0 0 0 0 0 0 0 0 0 0 0 0 0 0 0 0 0 0 0 0 0 0 0 0 0 0 0 0 0 0 0 0 0 0 0 0 0 0 0 0 0 0 0 0 0 0 0 0 0 0 0 0 0 0 0 0 0
0 8 8 8 8 8 0 0 0 0 0 0 0 0 0 0 0 0 0 0 0 0 0 0 0 0 0 0 0 0 0 0 0 0 0 0 0 0 0 0 0 0 0 0 0 0 0 0 0 0 0 0 0 0 0 0 0 0 0 0 0 0 0 0 0 0 0 0 0 0 0 0 0 0 0 0 0 0 0 0 0 0 0 0 0 0 0 0 0 0 0 0 0 0 0 0 0 0 0 0 0 0 0
12 12 12 8 0 0 8 0 0 0 0 0 0 0 0 0 0 0 0 0 0 0 0 0 0 0 0 0 0 0 0 0 0 0 0 0 0 0 0 0 0 0 0 0 0 0 0 0 0 0 0 0 0 0 0 0 0 0 0 0 0 0 0 0 0 0 0 0 0 0 0 0 0 0 0 0 0 0 0 0 0 0 0 0 0 0 0 0 0 0 0 0 0 0 0 0 0 0 0 0 0 0 0
24 20 0 0 0 0 0 0 0 0 0 0 0 0 0 0 0 0 0 0 0 0 0 0 0 0 0 0 0 0 0 0 0 0 0 0 0 0 0 0 0 0 0 0 0 0 0 0 0 0 0 0 0 0 0 0 0 0 0 0 0 0 0 0 0 0 0 0 0 0 0 0 0 0 0 0 0 0 0 0 0 0 0 0 0 0 0 0 0 0 0 0 0 0 0 0 0 0 0 0 0 0 0
20 8 0 0 0 0 0 0 0 0 0 0 0 0 0 0 0 0 0 0 0 0 0 0 0 0 0 0 0 0 0 0 0 0 0 0 0 0 0 0 0 0 0 0 0 0 0 0 0 0 0 0 0 0 0 0 0 0 0 0 0 0 0 0 0 0 0 0 0 0 0 0 0 0 0 0 0 0 0 0 0 0 0 0 0 0 0 0 0 0 0 0 0 0 0 0 0 0 0 0 0 0 0
8 0 0 0 0 0 0 0 0 0 0 0 0 0 0 0 0 0 0 0 0 0 0 0 0 0 0 0 0 0 0 0 0 0 0 0 0 0 0 0 0 0 0 0 0 0 0 0 0 0 0 0 0 0 0 0 0 0 0 0 0 0 0 0 0 0 0 0 0 0 0 0 0 0 0 0 0 0 0 0 0 0 0 0 0 0 0 0 0 0 0 0 8 8 8 12 12 8 8 12 12 8 8
0 0 0 0 0 0 0 0 0 0 0 0 0 0 0 0 0 0 0 0 0 0 0 0 0 0 0 0 0 0 0 0 0 0 0 0 0 0 0 0 0 0 0 0 0 0 0 0 0 0 0 0 0 0 0 0 0 0 0 0 0 0 0 0 0 0 0 0 0 0 0 0 0 0 0 0 0 0 0 0 0 0 0 0 0 0 0 0 0 0 0 8 8 12 12 12 12 12 12 8 8 8 8
0 0 0 0 0 0 0 0 0 0 0 0 0 0 0 0 0 0 0 0 0 0 0 0 0 0 0 0 0 0 0 0 0 0 0 0 0 0 0 0 0 0 0 0 0 0 0 0 0 0 0 0 0 0 0 0 0 0 0 0 0 0 0 0 0 0 0 0 0 0 0 0 0 0 0 0 0 0 0 0 0 0 0 0 0 0 0 0 0 0 0 0 0 0 8 0 0 0 0 0 0 0 8
0 0 0 0 0 0 0 0 0 0 0 0 0 0 0 0 0 0 0 0 0 0 0 0 0 0 0 0 0 0 0 0 0 0 0 0 0 0 0 0 0 0 0 0 0 0 0 0 0 0 0 0 0 0 0 0 0 0 0 0 0 0 0 0 0 0 0 0 0 0 0 0 0 0 0 0 0 0 0 0 0 0 0 0 0 0 0 0 0 0 0 0 0 0 0 0 0 0 0 0 0 0 0
0 0 0 0 0 0 0 0 0 0 0 0 0 0 0 0 0 0 0 0 0 0 0 0 0 0 0 0 0 0 0 0 0 0 0 0 0 0 0 0 0 0 0 0 0 0 0 0 0 0 0 0 0 0 0 0 0 0 0 0 0 0 0 0 0 0 0 0 0 0 0 0 0 0 0 0 0 0 0 0 0 0 0 0 0 0 0 0 0 0 0 0 0 0 0 0 0 0 0 0 0 0 0
0 0 0 0 0 0 0 0 0 0 0 0 0 0 0 0 0 0 0 0 0 0 0 0 0 0 0 0 0 0 0 0 0 0 0 0 0 0 0 0 0 0 0 0 0 0 0 0 0 0 0 0 0 0 0 0 0 0 0 0 0 0 0 0 0 0 0 0 0 0 0 0 0 0 0 0 0 0 0 0 0 0 0 0 0 0 0 0 0 0 0 0 0 0 0 0 0 0 0 0 0 0 0
0 0 0 0 0 0 0 0 0 0 0 0 0 0 0 0 0 0 0 0 0 0 0 0 0 0 0 0 0 0 0 0 0 0 0 0 0 0 0 0 0 0 0 0 0 0 0 0 0 0 0 0 0 0 0 0 0 0 0 0 0 0 0 0 0 0 0 0 0 0 0 0 0 0 0 0 0 0 0 0 0 0 0 0 0 0 0 0 0 0 0 0 0 0 0 0 0 0 0 0 0 0 0
0 0 0 0 0 0 0 0 0 0 0 0 0 0 0 0 0 0 0 0 0 0 0 0 0 0 0 0 0 0 0 0 0 0 0 0 0 0 0 0 0 0 0 0 0 0 0 0 0 0 0 0 0 0 0 0 0 0 0 0 0 0 0 0 0 0 0 0 0 0 0 0 0 0 0 0 0 0 0 0 0 0 0 0 0 0 0 0 0 0 0 0 0 0 0 0 0 0 0 0 0 0 0
0 0 0 0 0 0 0 0 0 0 0 0 0 0 0 0 0 0 0 0 0 0 0 0 0 0 0 0 0 0 0 0 0 0 0 0 0 0 0 0 0 0 0 0 0 0 0 0 0 0 0 0 0 0 0 0 0 0 0 0 0 0 0 0 0 0 0 0 0 0 0 0 0 0 0 0 0 0 0 0 0 0 0 0 0 0 0 0 0 0 0 0 0 0 0 0 0 0 0 0 0 0 0
0 0 0 0 0 0 0 0 0 0 0 0 0 0 0 0 0 0 0 0 0 0 0 0 0 0 0 0 0 0 0 0 0 0 0 0 0 0 0 0 0 0 0 0 0 0 0 0 0 0 0 0 0 0 0 0 0 0 0 0 0 0 0 0 0 0 0 0 0 0 0 0 0 0 0 0 0 0 0 0 0 0 0 0 0 0 0 0 0 0 0 0 0 0 0 0 0 0 0 0 0 0 0
0 0 0 0 0 0 0 0 0 0 0 0 0 0 0 0 0 0 0 0 0 0 0 0 0 0 0 0 0 0 0 0 0 0 0 0 0 0 0 0 0 0 0 0 0 0 0 0 0 0 0 0 0 0 0 0 0 0 0 0 0 0 0 0 0 0 0 0 0 0 0 0 0 0 0 0 0 0 0 0 0 0 0 0 0 0 0 0 0 0 0 0 0 0 0 0 0 0 0 0 0 0 0
0 0 0 0 0 0 0 0 0 0 0 0 0 0 0 0 0 0 0 0 0 0 0 0 0 0 0 0 0 0 0 0 0 0 0 0 0 0 0 0 0 0 0 0 0 0 0 0 0 0 0 0 0 0 0 0 0 0 0 0 0 0 0 0 0 0 0 0 0 0 0 0 0 0 0 0 0 0 0 0 0 0 0 0 0 0 0 0 0 0 0 0 0 0 0 0 0 0 0 0 0 0 0
0 0 0 0 0 0 0 0 0 0 0 0 0 0 0 0 0 0 0 0 0 0 0 0 0 0 0 0 0 0 0 0 0 0 0 0 0 0 0 0 0 0 0 0 0 0 0 0 0 0 0 0 0 0 0 0 0 0 0 0 0 0 0 0 0 0 0 0 0 0 0 0 0 0 0 0 0 0 0 0 0 0 0 0 0 0 0 0 0 0 0 0 0 0 0 0 0 0 0 0 0 0 0
0 0 0 0 0 0 0 0 0 0 0 0 0 0 0 0 0 0 0 0 0 0 0 0 0 0 0 0 0 0 0 0 0 0 0 0 0 0 0 0 0 0 0 0 0 0 0 0 0 0 0 0 0 0 0 0 0 0 0 0 0 0 0 0 0 0 0 0 0 0 0 0 0 0 0 0 0 0 0 0 0 0 0 0 0 0 0 0 0 0 0 0 0 0 0 0 0 0 0 0 0 0 0
0 0 0 0 0 0 0 0 0 0 0 0 0 0 0 0 0 0 0 0 0 0 0 0 0 0 0 0 0 0 0 0 0 0 0 0 0 0 0 0 0 0 0 0 0 0 0 0 0 0 0 0 0 0 0 0 0 0 0 0 0 0 0 0 0 0 0 0 0 0 0 0 0 0 0 0 0 0 0 0 0 0 0 0 0 0 0 0 0 0 0 0 0 0 0 0 0 0 0 0 0 0 0
0 0 0 0 0 0 0 0 0 0 0 0 0 0 0 0 0 0 0 0 0 0 0 0 0 0 0 0 0 0 0 0 0 0 0 0 0 0 0 0 0 0 0 0 0 0 0 0 0 0 0 0 0 0 0 0 0 0 0 0 0 0 0 0 0 0 0 0 0 0 0 0 0 0 0 0 0 0 0 0 0 0 0 0 0 0 0 0 0 0 0 0 0 0 0 0 0 0 0 0 0 0 0
0 0 0 0 0 0 0 0 0 0 0 0 0 0 0 0 0 0 0 0 0 0 0 0 0 0 0 0 0 0 0 0 0 0 0 0 0 0 0 0 0 0 0 0 0 0 0 0 0 0 0 0 0 0 0 0 0 0 0 0 0 0 0 0 0 0 0 0 0 0 0 0 0 0 0 0 0 0 0 0 0 0 0 0 0 0 0 0 0 0 0 0 0 0 0 0 0 0 0 0 0 0 0